Time,TemperatureF,DewpointF,PressureIn,WindDirection,WindDirectionDegrees,WindSpeedMPH,WindSpeedGustMPH,Humidity,HourlyPrecipIn,Conditions,Clouds,dailyrainin,SoftwareType,DateUTC
2013-02-17 00:02:00,10.0,-11.0,30.32,WSW,248,0.0,3.0,37,0.00,,,0.00,,2013-02-17 06:02:00,
2013-02-17 00:21:00,10.0,-11.0,30.32,West,275,0.0,2.0,37,0.00,,,0.00,,2013-02-17 06:21:00,
2013-02-17 00:31:00,10.0,-11.0,30.32,WNW,292,0.0,0.0,37,0.00,,,0.00,,2013-02-17 06:31:00,
2013-02-17 00:52:00,10.0,-11.0,30.32,WNW,292,0.0,0.0,37,0.00,,,0.00,,2013-02-17 06:52:00,
2013-02-17 01:01:00,10.0,-11.0,30.32,WNW,292,0.0,9.0,37,0.00,,,0.00,,2013-02-17 07:01:00,
2013-02-17 01:11:00,9.0,-12.0,30.31,WNW,285,0.0,0.0,37,0.00,,,0.00,,2013-02-17 07:11:00,
2013-02-17 01:21:00,9.0,-12.0,30.31,WNW,285,0.0,0.0,37,0.00,,,0.00,,2013-02-17 07:21:00,
2013-02-17 01:52:00,9.0,-12.0,30.31,NW,304,1.0,7.0,37,0.00,,,0.00,,2013-02-17 07:52:00,
2013-02-17 02:01:00,9.0,-12.0,30.31,West,272,0.0,3.0,37,0.00,,,0.00,,2013-02-17 08:01:00,
2013-02-17 02:21:00,9.0,-12.0,30.31,West,280,0.0,3.0,36,0.00,,,0.00,,2013-02-17 08:21:00,
2013-02-17 02:52:00,9.0,-12.0,30.32,West,270,0.0,1.0,36,0.00,,,0.00,,2013-02-17 08:52:00,
2013-02-17 03:21:00,9.0,-12.0,30.32,WNW,292,0.0,2.0,37,0.00,,,0.00,,2013-02-17 09:21:00,
2013-02-17 03:32:00,9.0,-12.0,30.32,WNW,292,0.0,0.0,37,0.00,,,0.00,,2013-02-17 09:32:00,
2013-02-17 03:52:00,8.0,-12.0,30.32,WNW,292,0.0,0.0,38,0.00,,,0.00,,2013-02-17 09:52:00,
2013-02-17 04:21:00,7.0,-12.0,30.32,WNW,292,0.0,0.0,40,0.00,,,0.00,,2013-02-17 10:21:00,
2013-02-17 04:31:00,7.0,-12.0,30.32,WNW,292,0.0,0.0,40,0.00,,,0.00,,2013-02-17 10:31:00,
2013-02-17 04:52:00,6.0,-12.0,30.33,West,270,0.0,0.0,42,0.00,,,0.00,,2013-02-17 10:52:00,
2013-02-17 05:21:00,6.0,-12.0,30.33,West,270,0.0,0.0,43,0.00,,,0.00,,2013-02-17 11:21:00,
2013-02-17 05:32:00,6.0,-11.0,30.34,West,270,0.0,0.0,44,0.00,,,0.00,,2013-02-17 11:32:00,
2013-02-17 05:52:00,6.0,-11.0,30.34,West,270,0.0,0.0,44,0.00,,,0.00,,2013-02-17 11:52:00,
2013-02-17 06:03:00,6.0,-11.0,30.35,West,270,0.0,0.0,45,0.00,,,0.00,,2013-02-17 12:03:00,
2013-02-17 06:22:00,6.0,-11.0,30.35,WNW,292,0.0,0.0,45,0.00,,,0.00,,2013-02-17 12:22:00,
2013-02-17 06:32:00,6.0,-11.0,30.35,WNW,292,0.0,0.0,45,0.00,,,0.00,,2013-02-17 12:32:00,
2013-02-17 06:52:00,6.0,-10.0,30.36,SW,225,0.0,0.0,46,0.00,,,0.00,,2013-02-17 12:52:00,
2013-02-17 07:02:00,6.0,-10.0,30.36,WSW,248,0.0,0.0,46,0.00,,,0.00,,2013-02-17 13:02:00,
2013-02-17 07:21:00,6.0,-10.0,30.36,SW,225,0.0,0.0,47,0.00,,,0.00,,2013-02-17 13:21:00,
2013-02-17 07:52:00,7.0,-9.0,30.37,WSW,248,0.0,0.0,48,0.00,,,0.00,,2013-02-17 13:52:00,
2013-02-17 08:01:00,8.0,-8.0,30.37,West,270,0.0,0.0,48,0.00,,,0.00,,2013-02-17 14:01:00,
2013-02-17 08:21:00,11.0,-5.0,30.37,West,270,0.0,0.0,47,0.00,,,0.00,,2013-02-17 14:21:00,
2013-02-17 08:53:00,16.0,-1.0,30.37,WSW,248,0.0,0.0,46,0.00,,,0.00,,2013-02-17 14:53:00,
2013-02-17 09:01:00,16.0,-1.0,30.37,WSW,248,0.0,0.0,46,0.00,,,0.00,,2013-02-17 15:01:00,
2013-02-17 09:11:00,16.0,-1.0,30.37,WSW,248,0.0,0.0,46,0.00,,,0.00,,2013-02-17 15:11:00,
2013-02-17 09:21:00,19.0,0.0,30.37,South,180,0.0,0.0,42,0.00,,,0.00,,2013-02-17 15:21:00,
2013-02-17 09:31:00,19.0,0.0,30.37,South,180,0.0,0.0,42,0.00,,,0.00,,2013-02-17 15:31:00,
2013-02-17 09:41:00,19.0,0.0,30.37,South,180,0.0,0.0,42,0.00,,,0.00,,2013-02-17 15:41:00,
2013-02-17 09:52:00,23.0,-13.0,30.37,SSE,158,0.0,0.0,19,0.00,,,0.00,,2013-02-17 15:52:00,
2013-02-17 10:01:00,23.0,-13.0,30.37,South,187,1.0,1.0,19,0.00,,,0.00,,2013-02-17 16:01:00,
2013-02-17 10:21:00,23.0,-13.0,30.37,SSW,202,1.0,6.0,19,0.00,,,0.00,,2013-02-17 16:21:00,
2013-02-17 10:32:00,24.0,-12.0,30.37,SE,137,0.0,5.0,19,0.00,,,0.00,,2013-02-17 16:32:00,
2013-02-17 10:51:00,24.0,-12.0,30.37,SSE,158,2.0,3.0,19,0.00,,,0.00,,2013-02-17 16:51:00,
2013-02-17 11:02:00,24.0,-12.0,30.37,SSW,194,3.0,8.0,19,0.00,,,0.00,,2013-02-17 17:02:00,
2013-02-17 11:21:00,25.0,-11.0,30.38,SW,225,6.0,6.0,19,0.00,,,0.00,,2013-02-17 17:21:00,
2013-02-17 11:32:00,25.0,-11.0,30.37,South,190,1.0,6.0,19,0.00,,,0.00,,2013-02-17 17:32:00,
2013-02-17 12:22:00,29.0,-8.0,30.36,SSE,158,6.0,8.0,19,0.00,,,0.00,,2013-02-17 18:22:00,
2013-02-17 12:33:00,31.0,-6.0,30.36,SSW,202,1.0,7.0,19,0.00,,,0.00,,2013-02-17 18:33:00,
2013-02-17 12:52:00,33.0,-5.0,30.36,South,180,9.0,10.0,19,0.00,,,0.00,,2013-02-17 18:52:00,
2013-02-17 13:01:00,35.0,-3.0,30.36,SSE,160,3.0,7.0,19,0.00,,,0.00,,2013-02-17 19:01:00,
2013-02-17 13:32:00,38.0,-1.0,30.35,SSE,158,3.0,13.0,19,0.00,,,0.00,,2013-02-17 19:32:00,
2013-02-17 13:52:00,39.0,0.0,30.34,SSE,158,3.0,8.0,19,0.00,,,0.00,,2013-02-17 19:52:00,
2013-02-17 14:02:00,39.0,0.0,30.34,South,180,3.0,6.0,19,0.00,,,0.00,,2013-02-17 20:02:00,
2013-02-17 14:21:00,38.0,-1.0,30.33,SSW,202,3.0,9.0,19,0.00,,,0.00,,2013-02-17 20:21:00,
2013-02-17 14:32:00,37.0,-1.0,30.32,SSE,158,0.0,5.0,19,0.00,,,0.00,,2013-02-17 20:32:00,
2013-02-17 14:52:00,35.0,-3.0,30.32,SSE,163,1.0,8.0,19,0.00,,,0.00,,2013-02-17 20:52:00,
2013-02-17 15:01:00,36.0,-2.0,30.32,WSW,248,3.0,7.0,19,0.00,,,0.00,,2013-02-17 21:01:00,
2013-02-17 15:21:00,35.0,-3.0,30.32,South,173,5.0,7.0,19,0.00,,,0.00,,2013-02-17 21:21:00,
2013-02-17 15:52:00,38.0,-1.0,30.30,SE,135,1.0,3.0,19,0.00,,,0.00,,2013-02-17 21:52:00,
2013-02-17 16:01:00,36.0,-2.0,30.30,SSE,158,0.0,2.0,19,0.00,,,0.00,,2013-02-17 22:01:00,
2013-02-17 16:21:00,38.0,-1.0,30.30,WSW,248,5.0,7.0,19,0.00,,,0.00,,2013-02-17 22:21:00,
2013-02-17 16:52:00,37.0,-1.0,30.30,SE,135,2.0,2.0,19,0.00,,,0.00,,2013-02-17 22:52:00,
2013-02-17 17:21:00,29.0,-8.0,30.28,SE,135,0.0,0.0,19,0.00,,,0.00,,2013-02-17 23:21:00,
2013-02-17 17:32:00,27.0,-10.0,30.28,ESE,112,0.0,0.0,19,0.00,,,0.00,,2013-02-17 23:32:00,
2013-02-17 17:52:00,24.0,-12.0,30.28,SSE,158,0.0,1.0,19,0.00,,,0.00,,2013-02-17 23:52:00,
2013-02-17 18:01:00,23.0,-13.0,30.29,SSE,158,0.0,0.0,19,0.00,,,0.00,,2013-02-18 00:01:00,
2013-02-17 18:22:00,22.0,-14.0,30.28,SSE,158,0.0,3.0,19,0.00,,,0.00,,2013-02-18 00:22:00,
2013-02-17 18:31:00,22.0,-14.0,30.28,SE,135,0.0,0.0,19,0.00,,,0.00,,2013-02-18 00:31:00,
2013-02-17 18:52:00,22.0,-14.0,30.28,SE,135,0.0,0.0,19,0.00,,,0.00,,2013-02-18 00:52:00,
2013-02-17 19:01:00,21.0,-15.0,30.28,SE,135,0.0,0.0,19,0.00,,,0.00,,2013-02-18 01:01:00,
2013-02-17 19:21:00,21.0,-6.0,30.28,SE,138,0.0,0.0,30,0.00,,,0.00,,2013-02-18 01:21:00,
2013-02-17 19:52:00,22.0,-2.0,30.27,SSE,158,0.0,2.0,34,0.00,,,0.00,,2013-02-18 01:52:00,
2013-02-17 20:21:00,22.0,-1.0,30.27,SE,135,0.0,0.0,35,0.00,,,0.00,,2013-02-18 02:21:00,
2013-02-17 20:32:00,21.0,-1.0,30.26,SSE,158,0.0,0.0,37,0.00,,,0.00,,2013-02-18 02:32:00,
2013-02-17 20:52:00,21.0,0.0,30.27,SE,135,1.0,2.0,39,0.00,,,0.00,,2013-02-18 02:52:00,
2013-02-17 21:01:00,21.0,0.0,30.27,SE,136,1.0,1.0,39,0.00,,,0.00,,2013-02-18 03:01:00,
2013-02-17 21:21:00,21.0,1.0,30.25,East,93,1.0,2.0,40,0.00,,,0.00,,2013-02-18 03:21:00,
2013-02-17 21:31:00,21.0,1.0,30.25,East,90,0.0,2.0,40,0.00,,,0.00,,2013-02-18 03:31:00,
2013-02-17 21:52:00,22.0,2.0,30.25,SE,135,1.0,2.0,41,0.00,,,0.00,,2013-02-18 03:52:00,
2013-02-17 22:01:00,22.0,1.0,30.25,SSE,152,0.0,0.0,40,0.00,,,0.00,,2013-02-18 04:01:00,
2013-02-17 22:21:00,22.0,1.0,30.25,ESE,114,0.0,5.0,40,0.00,,,0.00,,2013-02-18 04:21:00,
2013-02-17 22:32:00,22.0,1.0,30.24,ESE,112,0.0,2.0,40,0.00,,,0.00,,2013-02-18 04:32:00,
2013-02-17 22:51:00,21.0,1.0,30.24,ESE,112,0.0,0.0,40,0.00,,,0.00,,2013-02-18 04:51:00,
2013-02-17 23:02:00,21.0,1.0,30.24,SE,135,0.0,0.0,41,0.00,,,0.00,,2013-02-18 05:02:00,
2013-02-17 23:31:00,21.0,2.0,30.23,SE,135,0.0,0.0,42,0.00,,,0.00,,2013-02-18 05:31:00,
2013-02-17 23:52:00,22.0,3.0,30.22,SE,142,1.0,6.0,44,0.00,,,0.00,,2013-02-18 05:52:00,